Home > Time Zones > World Clock > Weather > Russia > Perm > Past weeks

Flag for Russia Weather past 2 weeks in Perm, Russia

Now
73 °F

Sunny.


Feels Like: 76 °F
Forecast: 61 / 88 °F
Wind: No wind

Location: Perm'/Bolshoe Savino

Current Time: May 28, 2015 at 9:58:37 AM

Latest Report: May 28, 2015 at 9:30 AM


Visibility: 10 mi

Pressure: 29.95 "Hg

Humidity: 61%

Dew point: 59 °F

Location of PermLocation

Historic Weather in Perm — Graph

°F

Perm temperature yesterday

Maximum temperature yesterday: 77 °F (at 4:30 PM)
Minimum temperature yesterday: 45 °F (at 4:30 AM)
Average temperature yesterday: 63 °F

Past Weeks' High & Low Weather Summary

 TemperatureHumidityPressure
High77 °F (May 27, 4:30 PM)100% (May 16, 9:00 PM)30.18 "Hg (May 16, 9:00 PM)
Low39 °F (May 20, 5:00 AM)12% (May 22, 3:30 PM)29.27 "Hg (May 17, 2:00 PM)
Average57 °F68%29.81 "Hg
* Reported May 13 9:00 AM — May 28 9:00 AM, Perm, Weather by CustomWeather, © 2015

Note: Actual official high and low records may vary slightly from our data, if they occured in-between our weather recording intervals... More about our weather records

Advertising

Perm weather history for previous 24 hours

 ConditionsComfort  
Time TempWeatherWind HumidityBarometerVisibility
9:00 AM
Thu, May 28
73 °FPassing clouds.3 mph61%29.98 "HgN/A
8:30 AM68 °FPassing clouds.1 mph78%29.98 "HgN/A
8:00 AM66 °FPassing clouds.No wind83%29.98 "HgN/A
7:30 AM63 °FPassing clouds.No wind88%29.98 "HgN/A
7:00 AM59 °FScattered clouds.3 mph94%29.98 "Hg6 mi
6:30 AM57 °FScattered clouds.1 mph94%29.98 "HgN/A
6:00 AM59 °FPassing clouds.8 mph88%29.98 "HgN/A
5:30 AM59 °FSprinkles. Passing clouds.8 mph88%29.98 "Hg5 mi
5:00 AM55 °FPassing clouds.6 mph94%29.98 "HgN/A
4:30 AM57 °FPassing clouds.No wind88%29.95 "HgN/A
4:00 AM59 °FPassing clouds.3 mph82%29.95 "HgN/A
3:30 AM59 °FPassing clouds.8 mph88%29.95 "HgN/A
3:00 AM59 °FPassing clouds.8 mph88%29.95 "HgN/A
2:30 AM61 °FPassing clouds.8 mph83%29.95 "HgN/A
2:00 AM64 °FThunderstorms. Passing clouds.8 mph68%29.95 "HgN/A
1:30 AM64 °FThunderstorms. Passing clouds.13 mph73%29.98 "Hg3 mi
1:00 AM63 °FClear.8 mph73%29.95 "Hg10 mi
12:00 AM64 °FClear.8 mph68%29.98 "Hg10 mi
11:30 PM
Wed, May 27
63 °FSunny.6 mph73%29.98 "Hg10 mi
11:00 PM61 °FSunny.8 mph77%29.98 "Hg10 mi
10:00 PM70 °FSunny.3 mph53%29.98 "Hg10 mi
9:30 PM72 °FSunny.3 mph53%29.98 "Hg10 mi
9:00 PM73 °FSunny.1 mph44%29.98 "Hg10 mi
8:30 PM73 °FSunny.3 mph44%29.98 "Hg10 mi
8:00 PM75 °FSunny.3 mph44%29.98 "Hg10 mi
7:30 PM77 °FSunny.3 mph39%29.98 "Hg10 mi
7:00 PM75 °FSunny.3 mph41%29.98 "Hg10 mi
6:30 PM75 °FSunny.8 mph39%29.98 "Hg10 mi
6:00 PM77 °FSunny.8 mph34%29.98 "Hg10 mi
5:30 PM75 °FSunny.6 mph41%30.01 "Hg10 mi
5:00 PM77 °FPassing clouds.10 mph34%30.01 "HgN/A
4:30 PM77 °FPassing clouds.10 mph34%30.01 "HgN/A
4:00 PM75 °FSunny.15 mph34%30.01 "Hg10 mi
3:30 PM75 °FSunny.8 mph36%30.01 "Hg10 mi
3:00 PM73 °FSunny.10 mph36%30.04 "Hg10 mi
2:30 PM75 °FSunny.10 mph34%30.04 "Hg10 mi
2:00 PM75 °FSunny.8 mph34%30.04 "Hg10 mi
1:30 PM73 °FSunny.10 mph36%30.04 "Hg10 mi
1:00 PM73 °FPassing clouds.13 mph33%30.04 "HgN/A
12:30 PM73 °FPassing clouds.8 mph36%30.04 "HgN/A
12:00 PM72 °FPassing clouds.8 mph41%30.04 "HgN/A
11:30 AM72 °FSunny.6 mph38%30.07 "Hg10 mi
11:00 AM70 °FPassing clouds.6 mph46%30.07 "HgN/A
10:30 AM68 °FPassing clouds.6 mph46%30.07 "HgN/A
10:00 AM66 °FPassing clouds.6 mph49%30.07 "HgN/A
9:30 AM64 °FSunny.6 mph52%30.07 "Hg10 mi
9:00 AM63 °FPassing clouds.6 mph64%30.07 "HgN/A
Weather by CustomWeather, © 2015

See weather overviewHow to use our weather pages